owner,sensor,date,latitude,longitude,vertical_datum,direction_of_sea_water_velocity,sea_water_speed,upward_sea_water_velocity,qcFlag 
TABS,ioos:station:wmo:42044:1,2011-11-01T00:00:00Z,26.1914,-97.0507,2.0,255.8272745,9.189700757,-99999.0,'11133222,11111222,99999999' 
TABS,ioos:station:wmo:42044:1,2011-11-01T00:30:00Z,26.1914,-97.0507,2.0,255.6343892,10.56017519,-99999.0,'11111222,11111222,99999999' 
TABS,ioos:station:wmo:42044:1,2011-11-01T01:00:00Z,26.1914,-97.0507,2.0,269.6935155,9.360133546,-99999.0,'11133222,11111222,99999999' 
TABS,ioos:station:wmo:42044:1,2011-11-01T01:30:00Z,26.1914,-97.0507,2.0,254.9523737,7.010370889,-99999.0,'11133222,11111222,99999999' 
TABS,ioos:station:wmo:42044:1,2011-11-01T02:00:00Z,26.1914,-97.0507,2.0,256.9878793,5.018864413,-99999.0,'11133222,11111222,99999999' 
TABS,ioos:station:wmo:42044:1,2011-11-01T02:30:00Z,26.1914,-97.0507,2.0,233.1049321,4.614000433,-99999.0,'11133222,11111222,99999999' 
TABS,ioos:station:wmo:42044:1,2011-11-01T03:00:00Z,26.1914,-97.0507,2.0,243.5921395,4.879118773,-99999.0,'11133222,11111222,99999999' 
TABS,ioos:station:wmo:42044:1,2011-11-01T03:30:00Z,26.1914,-97.0507,2.0,234.0978922,4.024574512,-99999.0,'11133222,11111222,99999999' 
TABS,ioos:station:wmo:42044:1,2011-11-01T04:00:00Z,26.1914,-97.0507,2.0,236.1857348,6.415122758,-99999.0,'11133222,11111222,99999999' 
TABS,ioos:station:wmo:42044:1,2011-11-01T04:30:00Z,26.1914,-97.0507,2.0,230.6941017,4.988506791,-99999.0,'11133222,11111222,99999999' 
TABS,ioos:station:wmo:42044:1,2011-11-01T05:00:00Z,26.1914,-97.0507,2.0,209.7596119,4.734405982,-99999.0,'11133222,11111222,99999999' 
TABS,ioos:station:wmo:42044:1,2011-11-01T05:30:00Z,26.1914,-97.0507,2.0,236.5944385,3.905137642,-99999.0,'11133222,11111222,99999999' 
TABS,ioos:station:wmo:42044:1,2011-11-01T06:00:00Z,26.1914,-97.0507,2.0,204.4130642,3.096901677,-99999.0,'11133222,11111222,99999999' 
TABS,ioos:station:wmo:42044:1,2011-11-01T06:30:00Z,26.1914,-97.0507,2.0,206.398865,4.633152275,-99999.0,'11133222,11111222,99999999' 
TABS,ioos:station:wmo:42044:1,2011-11-01T07:00:00Z,26.1914,-97.0507,2.0,225.1044294,3.867880557,-99999.0,'11133222,11111222,99999999' 
TABS,ioos:station:wmo:42044:1,2011-11-01T07:30:00Z,26.1914,-97.0507,2.0,200.8442292,2.557381473,-99999.0,'11133222,11111222,99999999' 
TABS,ioos:station:wmo:42044:1,2011-11-01T08:00:00Z,26.1914,-97.0507,2.0,235.7662858,3.217405787,-99999.0,'11133222,11111222,99999999' 
TABS,ioos:station:wmo:42044:1,2011-11-01T08:30:00Z,26.1914,-97.0507,2.0,309.0534665,4.094972527,-99999.0,'11133222,11111222,99999999' 
TABS,ioos:station:wmo:42044:1,2011-11-01T09:00:00Z,26.1914,-97.0507,2.0,313.777107,3.974845909,-99999.0,'11133222,11111222,99999999' 
TABS,ioos:station:wmo:42044:1,2011-11-01T09:30:00Z,26.1914,-97.0507,2.0,334.2465925,5.684654783,-99999.0,'11133222,11111222,99999999' 
TABS,ioos:station:wmo:42044:1,2011-11-01T10:00:00Z,26.1914,-97.0507,2.0,334.9166751,5.708353528,-99999.0,'11133222,11111222,99999999' 
TABS,ioos:station:wmo:42044:1,2011-11-01T10:30:00Z,26.1914,-97.0507,2.0,15.08471483,2.651358143,-99999.0,'11133222,11111222,99999999' 
TABS,ioos:station:wmo:42044:1,2011-11-01T11:00:00Z,26.1914,-97.0507,2.0,324.9723501,5.22670068,-99999.0,'11133222,11111222,99999999' 
TABS,ioos:station:wmo:42044:1,2011-11-01T11:30:00Z,26.1914,-97.0507,2.0,44.42831138,3.542781393,-99999.0,'11133222,11111222,99999999' 
TABS,ioos:station:wmo:42044:1,2011-11-01T12:00:00Z,26.1914,-97.0507,2.0,327.4145793,4.60486699,-99999.0,'11133222,11111222,99999999' 
TABS,ioos:station:wmo:42044:1,2011-11-01T12:30:00Z,26.1914,-97.0507,2.0,7.957717077,5.634252391,-99999.0,'11133222,11111222,99999999' 
TABS,ioos:station:wmo:42044:1,2011-11-01T13:00:00Z,26.1914,-97.0507,2.0,35.11009487,3.581689545,-99999.0,'11133222,11111222,99999999' 
TABS,ioos:station:wmo:42044:1,2011-11-01T13:30:00Z,26.1914,-97.0507,2.0,28.49849569,5.302499411,-99999.0,'11133222,11111222,99999999' 
TABS,ioos:station:wmo:42044:1,2011-11-01T14:00:00Z,26.1914,-97.0507,2.0,4.836782594,9.13251882,-99999.0,'11133222,11111222,99999999' 
TABS,ioos:station:wmo:42044:1,2011-11-01T14:30:00Z,26.1914,-97.0507,2.0,20.57322191,7.882721611,-99999.0,'11133222,11111222,99999999' 
TABS,ioos:station:wmo:42044:1,2011-11-01T15:00:00Z,26.1914,-97.0507,2.0,1.591347009,5.762221794,-99999.0,'11133222,11111222,99999999' 
TABS,ioos:station:wmo:42044:1,2011-11-01T15:30:00Z,26.1914,-97.0507,2.0,25.14682718,5.600830296,-99999.0,'11133222,11111222,99999999' 
TABS,ioos:station:wmo:42044:1,2011-11-01T16:00:00Z,26.1914,-97.0507,2.0,0.845217706,6.780737423,-99999.0,'11133222,11111222,99999999' 
TABS,ioos:station:wmo:42044:1,2011-11-01T16:30:00Z,26.1914,-97.0507,2.0,1.614733781,8.163240778,-99999.0,'11133222,11111222,99999999' 
TABS,ioos:station:wmo:42044:1,2011-11-01T17:00:00Z,26.1914,-97.0507,2.0,1.4227326,10.47322777,-99999.0,'11111222,11111222,99999999' 
TABS,ioos:station:wmo:42044:1,2011-11-01T17:30:00Z,26.1914,-97.0507,2.0,339.1337567,10.58418632,-99999.0,'11111222,11111222,99999999' 
TABS,ioos:station:wmo:42044:1,2011-11-01T18:00:00Z,26.1914,-97.0507,2.0,342.9285929,13.55735962,-99999.0,'11111222,11111222,99999999' 
TABS,ioos:station:wmo:42044:1,2011-11-01T18:30:00Z,26.1914,-97.0507,2.0,345.1526287,12.33174765,-99999.0,'11111222,11111222,99999999' 
TABS,ioos:station:wmo:42044:1,2011-11-01T19:00:00Z,26.1914,-97.0507,2.0,350.2890501,14.76152431,-99999.0,'11111222,11111222,99999999' 
TABS,ioos:station:wmo:42044:1,2011-11-01T19:30:00Z,26.1914,-97.0507,2.0,355.2461207,14.96147386,-99999.0,'11111222,11111222,99999999' 
TABS,ioos:station:wmo:42044:1,2011-11-01T20:00:00Z,26.1914,-97.0507,2.0,355.3667214,15.72138035,-99999.0,'11111222,11111222,99999999' 
TABS,ioos:station:wmo:42044:1,2011-11-01T20:30:00Z,26.1914,-97.0507,2.0,354.1619749,15.63107802,-99999.0,'11111222,11111222,99999999' 
TABS,ioos:station:wmo:42044:1,2011-11-01T21:00:00Z,26.1914,-97.0507,2.0,355.4212337,18.0375719,-99999.0,'11111222,11111222,99999999' 
TABS,ioos:station:wmo:42044:1,2011-11-01T21:30:00Z,26.1914,-97.0507,2.0,355.1661389,17.56247135,-99999.0,'11111222,11111222,99999999' 
TABS,ioos:station:wmo:42044:1,2011-11-01T22:00:00Z,26.1914,-97.0507,2.0,358.4328103,20.10752347,-99999.0,'11111222,11111222,99999999' 
TABS,ioos:station:wmo:42044:1,2011-11-01T22:30:00Z,26.1914,-97.0507,2.0,356.4458585,19.51754339,-99999.0,'11111222,11111222,99999999' 
TABS,ioos:station:wmo:42044:1,2011-11-01T23:00:00Z,26.1914,-97.0507,2.0,2.017259704,18.7516186,-99999.0,'11111222,11111222,99999999' 
TABS,ioos:station:wmo:42044:1,2011-11-01T23:30:00Z,26.1914,-97.0507,2.0,359.8228251,16.1500774,-99999.0,'11111222,11144222,99999999' 
TABS,ioos:station:wmo:42044:1,2011-11-02T00:00:00Z,26.1914,-97.0507,2.0,14.36475932,16.9292646,-99999.0,'11111222,11111222,99999999' 
TABS,ioos:station:wmo:42044:1,2011-11-02T00:30:00Z,26.1914,-97.0507,2.0,16.58306432,18.39509174,-99999.0,'11111222,11111222,99999999' 
TABS,ioos:station:wmo:42044:1,2011-11-02T01:00:00Z,26.1914,-97.0507,2.0,44.71623152,17.12633644,-99999.0,'11111222,11111222,99999999' 
TABS,ioos:station:wmo:42044:1,2011-11-02T01:30:00Z,26.1914,-97.0507,2.0,39.01497447,16.88583134,-99999.0,'11111222,11111222,99999999' 
TABS,ioos:station:wmo:42044:1,2011-11-02T02:00:00Z,26.1914,-97.0507,2.0,36.58388489,15.21818977,-99999.0,'11111222,11111222,99999999' 
TABS,ioos:station:wmo:42044:1,2011-11-02T02:30:00Z,26.1914,-97.0507,2.0,22.55788256,17.0223177,-99999.0,'11111222,11111222,99999999' 
TABS,ioos:station:wmo:42044:1,2011-11-02T03:00:00Z,26.1914,-97.0507,2.0,24.35249925,16.56372543,-99999.0,'11111222,11111222,99999999' 
TABS,ioos:station:wmo:42044:1,2011-11-02T03:30:00Z,26.1914,-97.0507,2.0,17.7206323,16.23007086,-99999.0,'11111222,11111222,99999999' 
TABS,ioos:station:wmo:42044:1,2011-11-02T04:00:00Z,26.1914,-97.0507,2.0,10.26325911,17.17479549,-99999.0,'11111222,11111222,99999999' 
TABS,ioos:station:wmo:42044:1,2011-11-02T04:30:00Z,26.1914,-97.0507,2.0,12.25746568,16.25044307,-99999.0,'11111222,11111222,99999999' 
TABS,ioos:station:wmo:42044:1,2011-11-02T05:00:00Z,26.1914,-97.0507,2.0,14.02787207,16.25473777,-99999.0,'11111222,11111222,99999999' 
TABS,ioos:station:wmo:42044:1,2011-11-02T05:30:00Z,26.1914,-97.0507,2.0,6.498721883,17.58297472,-99999.0,'11111222,11111222,99999999' 
TABS,ioos:station:wmo:42044:1,2011-11-02T06:00:00Z,26.1914,-97.0507,2.0,18.3827914,17.31347741,-99999.0,'11111222,11111222,99999999' 
TABS,ioos:station:wmo:42044:1,2011-11-02T06:30:00Z,26.1914,-97.0507,2.0,26.70649552,18.13456644,-99999.0,'11111222,11111222,99999999' 
TABS,ioos:station:wmo:42044:1,2011-11-02T07:00:00Z,26.1914,-97.0507,2.0,5.356894301,20.45934994,-99999.0,'11111222,11111222,99999999' 
TABS,ioos:station:wmo:42044:1,2011-11-02T07:30:00Z,26.1914,-97.0507,2.0,14.3968156,17.73698114,-99999.0,'11111222,11111222,99999999' 
TABS,ioos:station:wmo:42044:1,2011-11-02T08:00:00Z,26.1914,-97.0507,2.0,80.69271155,17.62199194,-99999.0,'11111222,11111222,99999999' 
TABS,ioos:station:wmo:42044:1,2011-11-02T08:30:00Z,26.1914,-97.0507,2.0,84.89471963,16.29464329,-99999.0,'11111222,11111222,99999999' 
TABS,ioos:station:wmo:42044:1,2011-11-02T09:00:00Z,26.1914,-97.0507,2.0,114.6648029,15.24047571,-99999.0,'11111222,11111222,99999999' 
TABS,ioos:station:wmo:42044:1,2011-11-02T09:30:00Z,26.1914,-97.0507,2.0,113.1189525,16.07060982,-99999.0,'11111222,11111222,99999999' 
TABS,ioos:station:wmo:42044:1,2011-11-02T10:00:00Z,26.1914,-97.0507,2.0,140.5942478,19.07667948,-99999.0,'11111222,11111222,99999999' 
TABS,ioos:station:wmo:42044:1,2011-11-02T10:30:00Z,26.1914,-97.0507,2.0,85.16692404,15.07359612,-99999.0,'11111222,11111222,99999999' 
TABS,ioos:station:wmo:42044:1,2011-11-02T11:00:00Z,26.1914,-97.0507,2.0,95.16027835,13.67542687,-99999.0,'11111222,11111222,99999999' 
TABS,ioos:station:wmo:42044:1,2011-11-02T11:30:00Z,26.1914,-97.0507,2.0,120.182002,18.85630929,-99999.0,'11111222,11111222,99999999' 
TABS,ioos:station:wmo:42044:1,2011-11-02T12:00:00Z,26.1914,-97.0507,2.0,178.2303821,20.0795742,-99999.0,'11111222,11111222,99999999' 
TABS,ioos:station:wmo:42044:1,2011-11-02T12:30:00Z,26.1914,-97.0507,2.0,176.0015881,18.21432952,-99999.0,'11111222,11111222,99999999' 
TABS,ioos:station:wmo:42044:1,2011-11-02T13:00:00Z,26.1914,-97.0507,2.0,186.1986124,16.11421733,-99999.0,'11111222,11111222,99999999' 
TABS,ioos:station:wmo:42044:1,2011-11-02T13:30:00Z,26.1914,-97.0507,2.0,175.4049634,17.47616663,-99999.0,'11111222,11111222,99999999' 
TABS,ioos:station:wmo:42044:1,2011-11-02T14:00:00Z,26.1914,-97.0507,2.0,167.9316537,19.56233626,-99999.0,'11111222,11111222,99999999' 
TABS,ioos:station:wmo:42044:1,2011-11-02T14:30:00Z,26.1914,-97.0507,2.0,182.7099863,18.61081675,-99999.0,'11111222,11111222,99999999' 
TABS,ioos:station:wmo:42044:1,2011-11-02T15:00:00Z,26.1914,-97.0507,2.0,172.0399816,18.55880653,-99999.0,'11111222,11111222,99999999' 
TABS,ioos:station:wmo:42044:1,2011-11-02T15:30:00Z,26.1914,-97.0507,2.0,181.7743022,17.43836288,-99999.0,'11111222,11111222,99999999' 
TABS,ioos:station:wmo:42044:1,2011-11-02T16:00:00Z,26.1914,-97.0507,2.0,168.9556314,16.91323742,-99999.0,'11111222,11111222,99999999' 
TABS,ioos:station:wmo:42044:1,2011-11-02T16:30:00Z,26.1914,-97.0507,2.0,170.0735672,19.49178288,-99999.0,'11111222,11111222,99999999' 
TABS,ioos:station:wmo:42044:1,2011-11-02T17:00:00Z,26.1914,-97.0507,2.0,171.3966879,16.44503573,-99999.0,'11111222,11111222,99999999' 
TABS,ioos:station:wmo:42044:1,2011-11-02T17:30:00Z,26.1914,-97.0507,2.0,164.4525176,21.15403744,-99999.0,'11111222,11111222,99999999' 
TABS,ioos:station:wmo:42044:1,2011-11-02T18:00:00Z,26.1914,-97.0507,2.0,179.7252557,20.87023958,-99999.0,'11111222,11111222,99999999' 
TABS,ioos:station:wmo:42044:1,2011-11-02T18:30:00Z,26.1914,-97.0507,2.0,165.6177728,21.7000576,-99999.0,'11111222,11111222,99999999' 
TABS,ioos:station:wmo:42044:1,2011-11-02T19:00:00Z,26.1914,-97.0507,2.0,171.7998997,20.89360668,-99999.0,'11111222,11111222,99999999' 
TABS,ioos:station:wmo:42044:1,2011-11-02T19:30:00Z,26.1914,-97.0507,2.0,167.7249954,24.22377757,-99999.0,'11111222,11111222,99999999' 
TABS,ioos:station:wmo:42044:1,2011-11-02T20:00:00Z,26.1914,-97.0507,2.0,165.1892807,23.51112503,-99999.0,'11111222,11111222,99999999' 
TABS,ioos:station:wmo:42044:1,2011-11-02T20:30:00Z,26.1914,-97.0507,2.0,0.356965783,24.09046699,-99999.0,'11111222,11111222,99999999' 
TABS,ioos:station:wmo:42044:1,2011-11-02T21:00:00Z,26.1914,-97.0507,2.0,356.5483865,23.25218484,-99999.0,'11111222,11111222,99999999' 
TABS,ioos:station:wmo:42044:1,2011-11-02T21:30:00Z,26.1914,-97.0507,2.0,357.887397,23.05567392,-99999.0,'11111222,11111222,99999999' 
TABS,ioos:station:wmo:42044:1,2011-11-02T22:00:00Z,26.1914,-97.0507,2.0,356.4208279,23.38561951,-99999.0,'11111222,11111222,99999999' 
TABS,ioos:station:wmo:42044:1,2011-11-02T22:30:00Z,26.1914,-97.0507,2.0,11.30427416,19.23310947,-99999.0,'11111222,11111222,99999999' 
TABS,ioos:station:wmo:42044:1,2011-11-02T23:00:00Z,26.1914,-97.0507,2.0,0.053657874,21.44000933,-99999.0,'11111222,11111222,99999999' 
TABS,ioos:station:wmo:42044:1,2011-11-02T23:30:00Z,26.1914,-97.0507,2.0,3.114261158,19.32854107,-99999.0,'11111222,11111222,99999999' 
TABS,ioos:station:wmo:42044:1,2011-11-03T00:00:00Z,26.1914,-97.0507,2.0,351.4820857,17.95809567,-99999.0,'11111222,11111222,99999999' 
TABS,ioos:station:wmo:42044:1,2011-11-03T00:30:00Z,26.1914,-97.0507,2.0,355.2010823,18.76579068,-99999.0,'11111222,11111222,99999999' 
TABS,ioos:station:wmo:42044:1,2011-11-03T01:00:00Z,26.1914,-97.0507,2.0,343.1461145,15.58963758,-99999.0,'11111222,11111222,99999999' 
TABS,ioos:station:wmo:42044:1,2011-11-03T01:30:00Z,26.1914,-97.0507,2.0,336.3941591,15.50768197,-99999.0,'11111222,11111222,99999999' 
TABS,ioos:station:wmo:42044:1,2011-11-03T02:00:00Z,26.1914,-97.0507,2.0,358.3221956,12.63541847,-99999.0,'11111222,11111222,99999999' 
TABS,ioos:station:wmo:42044:1,2011-11-03T02:30:00Z,26.1914,-97.0507,2.0,5.668904066,12.24990612,-99999.0,'11111222,11111222,99999999' 
TABS,ioos:station:wmo:42044:1,2011-11-03T03:00:00Z,26.1914,-97.0507,2.0,327.1048019,11.59989655,-99999.0,'11111222,11111222,99999999' 
TABS,ioos:station:wmo:42044:1,2011-11-03T03:30:00Z,26.1914,-97.0507,2.0,1.347460821,10.63293939,-99999.0,'11111222,11111222,99999999' 
TABS,ioos:station:wmo:42044:1,2011-11-03T04:00:00Z,26.1914,-97.0507,2.0,337.2870903,9.919243923,-99999.0,'11133222,11111222,99999999' 
TABS,ioos:station:wmo:42044:1,2011-11-03T04:30:00Z,26.1914,-97.0507,2.0,344.1458973,11.23748192,-99999.0,'11111222,11111222,99999999' 
TABS,ioos:station:wmo:42044:1,2011-11-03T05:00:00Z,26.1914,-97.0507,2.0,338.0116993,7.958944654,-99999.0,'11133222,11111222,99999999' 
TABS,ioos:station:wmo:42044:1,2011-11-03T05:30:00Z,26.1914,-97.0507,2.0,356.7915404,6.610363076,-99999.0,'11133222,11111222,99999999' 
TABS,ioos:station:wmo:42044:1,2011-11-03T06:00:00Z,26.1914,-97.0507,2.0,352.5784889,7.664209026,-99999.0,'11133222,11111222,99999999' 
TABS,ioos:station:wmo:42044:1,2011-11-03T06:30:00Z,26.1914,-97.0507,2.0,341.5007099,8.414826201,-99999.0,'11133222,11111222,99999999' 
TABS,ioos:station:wmo:42044:1,2011-11-03T07:00:00Z,26.1914,-97.0507,2.0,345.6002228,6.112020942,-99999.0,'11133222,11111222,99999999' 
TABS,ioos:station:wmo:42044:1,2011-11-03T07:30:00Z,26.1914,-97.0507,2.0,348.7476287,7.840727007,-99999.0,'11133222,11111222,99999999' 
TABS,ioos:station:wmo:42044:1,2011-11-03T08:00:00Z,26.1914,-97.0507,2.0,328.8390694,5.971616197,-99999.0,'11133222,11111222,99999999' 
TABS,ioos:station:wmo:42044:1,2011-11-03T08:30:00Z,26.1914,-97.0507,2.0,301.420567,5.812271501,-99999.0,'11133222,11111222,99999999' 
TABS,ioos:station:wmo:42044:1,2011-11-03T09:00:00Z,26.1914,-97.0507,2.0,347.0056241,3.468832657,-99999.0,'11133222,11111222,99999999' 
TABS,ioos:station:wmo:42044:1,2011-11-03T09:30:00Z,26.1914,-97.0507,2.0,315.4722626,4.292283774,-99999.0,'11133222,11111222,99999999' 
TABS,ioos:station:wmo:42044:1,2011-11-03T10:00:00Z,26.1914,-97.0507,2.0,331.6629258,3.181210461,-99999.0,'11133222,11111222,99999999' 
TABS,ioos:station:wmo:42044:1,2011-11-03T10:30:00Z,26.1914,-97.0507,2.0,312.5107686,0.651152824,-99999.0,'11133222,11111222,99999999' 
TABS,ioos:station:wmo:42044:1,2011-11-03T11:00:00Z,26.1914,-97.0507,2.0,150.9310414,15.6629563,-99999.0,'11111222,11111222,99999999' 
TABS,ioos:station:wmo:42044:1,2011-11-03T11:30:00Z,26.1914,-97.0507,2.0,155.9944459,17.62438368,-99999.0,'11111222,11111222,99999999' 
TABS,ioos:station:wmo:42044:1,2011-11-03T12:00:00Z,26.1914,-97.0507,2.0,165.0772074,16.77577122,-99999.0,'11111222,11111222,99999999' 
TABS,ioos:station:wmo:42044:1,2011-11-03T12:30:00Z,26.1914,-97.0507,2.0,165.4392867,27.56532786,-99999.0,'11111222,11111222,99999999' 
TABS,ioos:station:wmo:42044:1,2011-11-03T13:00:00Z,26.1914,-97.0507,2.0,152.3922518,30.23217161,-99999.0,'11111222,11111222,99999999' 
TABS,ioos:station:wmo:42044:1,2011-11-03T13:30:00Z,26.1914,-97.0507,2.0,163.9296865,35.33059439,-99999.0,'11111222,11111222,99999999' 
TABS,ioos:station:wmo:42044:1,2011-11-03T14:00:00Z,26.1914,-97.0507,2.0,157.3076254,36.54925991,-99999.0,'11111222,11111222,99999999' 
TABS,ioos:station:wmo:42044:1,2011-11-03T14:30:00Z,26.1914,-97.0507,2.0,164.0831494,35.62584034,-99999.0,'11111222,11111222,99999999' 
TABS,ioos:station:wmo:42044:1,2011-11-03T15:00:00Z,26.1914,-97.0507,2.0,159.7202376,43.42160062,-99999.0,'11111222,11111222,99999999' 
TABS,ioos:station:wmo:42044:1,2011-11-03T15:30:00Z,26.1914,-97.0507,2.0,157.8366403,49.99389563,-99999.0,'11111222,11111222,99999999' 
TABS,ioos:station:wmo:42044:1,2011-11-03T16:00:00Z,26.1914,-97.0507,2.0,169.565293,50.19001594,-99999.0,'11111222,11111222,99999999' 
TABS,ioos:station:wmo:42044:1,2011-11-03T16:30:00Z,26.1914,-97.0507,2.0,152.9611645,49.23095469,-99999.0,'11111222,11111222,99999999' 
TABS,ioos:station:wmo:42044:1,2011-11-03T17:00:00Z,26.1914,-97.0507,2.0,152.3153618,53.33592879,-99999.0,'11111222,11111222,99999999' 
TABS,ioos:station:wmo:42044:1,2011-11-03T17:30:00Z,26.1914,-97.0507,2.0,150.7630891,46.4354692,-99999.0,'11111222,11111222,99999999' 
TABS,ioos:station:wmo:42044:1,2011-11-03T18:00:00Z,26.1914,-97.0507,2.0,193.8300346,52.62571995,-99999.0,'11111222,11111222,99999999' 
TABS,ioos:station:wmo:42044:1,2011-11-03T18:30:00Z,26.1914,-97.0507,2.0,244.701133,49.16525806,-99999.0,'11111222,11111222,99999999' 
TABS,ioos:station:wmo:42044:1,2011-11-03T19:00:00Z,26.1914,-97.0507,2.0,253.94354,51.19712492,-99999.0,'11111222,11111222,99999999' 
TABS,ioos:station:wmo:42044:1,2011-11-03T19:30:00Z,26.1914,-97.0507,2.0,210.7782559,46.68558878,-99999.0,'11111222,11111222,99999999' 
TABS,ioos:station:wmo:42044:1,2011-11-03T20:00:00Z,26.1914,-97.0507,2.0,189.3441639,51.91895415,-99999.0,'11111222,11111222,99999999' 
TABS,ioos:station:wmo:42044:1,2011-11-03T20:30:00Z,26.1914,-97.0507,2.0,201.9911049,43.12797932,-99999.0,'11111222,11111222,99999999' 
TABS,ioos:station:wmo:42044:1,2011-11-03T21:00:00Z,26.1914,-97.0507,2.0,194.8381646,46.42829417,-99999.0,'11111222,11111222,99999999' 
TABS,ioos:station:wmo:42044:1,2011-11-03T21:30:00Z,26.1914,-97.0507,2.0,184.3526248,42.16161287,-99999.0,'11111222,11111222,99999999' 
TABS,ioos:station:wmo:42044:1,2011-11-03T22:00:00Z,26.1914,-97.0507,2.0,167.2729094,42.35050177,-99999.0,'11111222,11111222,99999999' 
TABS,ioos:station:wmo:42044:1,2011-11-03T22:30:00Z,26.1914,-97.0507,2.0,188.9776517,39.66596148,-99999.0,'11111222,11111222,99999999' 
TABS,ioos:station:wmo:42044:1,2011-11-03T23:00:00Z,26.1914,-97.0507,2.0,173.1887457,38.02838019,-99999.0,'11111222,11111222,99999999' 
TABS,ioos:station:wmo:42044:1,2011-11-03T23:30:00Z,26.1914,-97.0507,2.0,186.4627602,33.49285446,-99999.0,'11111222,11111222,99999999' 
TABS,ioos:station:wmo:42044:1,2011-11-04T00:00:00Z,26.1914,-97.0507,2.0,171.0836278,35.35725244,-99999.0,'11111222,11111222,99999999' 
TABS,ioos:station:wmo:42044:1,2011-11-04T00:30:00Z,26.1914,-97.0507,2.0,181.8041861,33.34653505,-99999.0,'11111222,11111222,99999999' 
TABS,ioos:station:wmo:42044:1,2011-11-04T01:00:00Z,26.1914,-97.0507,2.0,185.3209736,31.91755003,-99999.0,'11111222,11111222,99999999' 
TABS,ioos:station:wmo:42044:1,2011-11-04T01:30:00Z,26.1914,-97.0507,2.0,192.1716039,28.55185633,-99999.0,'11111222,11111222,99999999' 
TABS,ioos:station:wmo:42044:1,2011-11-04T02:00:00Z,26.1914,-97.0507,2.0,180.3576031,25.6204996,-99999.0,'11111222,11111222,99999999' 
TABS,ioos:station:wmo:42044:1,2011-11-04T02:30:00Z,26.1914,-97.0507,2.0,184.2386839,25.29920552,-99999.0,'11111222,11111222,99999999' 
TABS,ioos:station:wmo:42044:1,2011-11-04T03:00:00Z,26.1914,-97.0507,2.0,181.4841788,23.54790224,-99999.0,'11111222,11111222,99999999' 
TABS,ioos:station:wmo:42044:1,2011-11-04T03:30:00Z,26.1914,-97.0507,2.0,188.958549,21.51243826,-99999.0,'11111222,11111222,99999999' 
TABS,ioos:station:wmo:42044:1,2011-11-04T04:00:00Z,26.1914,-97.0507,2.0,163.4915338,20.69299398,-99999.0,'11111222,11111222,99999999' 
TABS,ioos:station:wmo:42044:1,2011-11-04T04:30:00Z,26.1914,-97.0507,2.0,190.8753021,17.33128097,-99999.0,'11111222,11111222,99999999' 
TABS,ioos:station:wmo:42044:1,2011-11-04T05:00:00Z,26.1914,-97.0507,2.0,184.1099651,18.27700741,-99999.0,'11111222,11111222,99999999' 
TABS,ioos:station:wmo:42044:1,2011-11-04T05:30:00Z,26.1914,-97.0507,2.0,199.8199262,19.22910554,-99999.0,'11111222,11111222,99999999' 
TABS,ioos:station:wmo:42044:1,2011-11-04T06:00:00Z,26.1914,-97.0507,2.0,183.8008985,17.64882432,-99999.0,'11111222,11111222,99999999' 
TABS,ioos:station:wmo:42044:1,2011-11-04T06:30:00Z,26.1914,-97.0507,2.0,173.5190614,16.65643719,-99999.0,'11111222,11111222,99999999' 
TABS,ioos:station:wmo:42044:1,2011-11-04T07:00:00Z,26.1914,-97.0507,2.0,197.6259207,16.57831113,-99999.0,'11111222,11111222,99999999' 
TABS,ioos:station:wmo:42044:1,2011-11-04T07:30:00Z,26.1914,-97.0507,2.0,182.5313683,15.39502517,-99999.0,'11111222,11111222,99999999' 
TABS,ioos:station:wmo:42044:1,2011-11-04T08:00:00Z,26.1914,-97.0507,2.0,184.1507443,14.36768945,-99999.0,'11111222,11111222,99999999' 
TABS,ioos:station:wmo:42044:1,2011-11-04T08:30:00Z,26.1914,-97.0507,2.0,201.7705577,13.91229672,-99999.0,'11111222,11111222,99999999' 
TABS,ioos:station:wmo:42044:1,2011-11-04T09:00:00Z,26.1914,-97.0507,2.0,186.6132346,9.724710793,-99999.0,'11133222,11111222,99999999' 
TABS,ioos:station:wmo:42044:1,2011-11-04T09:30:00Z,26.1914,-97.0507,2.0,186.2794926,9.416501473,-99999.0,'11133222,11111222,99999999' 
TABS,ioos:station:wmo:42044:1,2011-11-04T10:00:00Z,26.1914,-97.0507,2.0,198.3342019,12.62066955,-99999.0,'11111222,11111222,99999999' 
TABS,ioos:station:wmo:42044:1,2011-11-04T10:30:00Z,26.1914,-97.0507,2.0,197.9019531,11.22340857,-99999.0,'11111222,11111222,99999999' 
TABS,ioos:station:wmo:42044:1,2011-11-04T11:00:00Z,26.1914,-97.0507,2.0,186.265973,10.26130596,-99999.0,'11111222,11111222,99999999' 
TABS,ioos:station:wmo:42044:1,2011-11-04T11:30:00Z,26.1914,-97.0507,2.0,162.9628731,10.88780051,-99999.0,'11111222,11111222,99999999' 
TABS,ioos:station:wmo:42044:1,2011-11-04T12:00:00Z,26.1914,-97.0507,2.0,196.4610252,9.916461062,-99999.0,'11133222,11111222,99999999' 
TABS,ioos:station:wmo:42044:1,2011-11-04T12:30:00Z,26.1914,-97.0507,2.0,170.3812188,8.438631406,-99999.0,'11133222,11111222,99999999' 
TABS,ioos:station:wmo:42044:1,2011-11-04T13:00:00Z,26.1914,-97.0507,2.0,202.1843495,8.607171429,-99999.0,'11133222,11111222,99999999' 
TABS,ioos:station:wmo:42044:1,2011-11-04T13:30:00Z,26.1914,-97.0507,2.0,199.0789064,8.718950625,-99999.0,'11133222,11111222,99999999' 
TABS,ioos:station:wmo:42044:1,2011-11-04T14:00:00Z,26.1914,-97.0507,2.0,194.5801758,5.362704542,-99999.0,'11133222,11111222,99999999' 
TABS,ioos:station:wmo:42044:1,2011-11-04T14:30:00Z,26.1914,-97.0507,2.0,185.6142035,5.92843993,-99999.0,'11133222,11111222,99999999' 
TABS,ioos:station:wmo:42044:1,2011-11-04T15:00:00Z,26.1914,-97.0507,2.0,172.6842813,5.968584422,-99999.0,'11133222,11111222,99999999' 
TABS,ioos:station:wmo:42044:1,2011-11-04T15:30:00Z,26.1914,-97.0507,2.0,187.500904,5.668509504,-99999.0,'11133222,11111222,99999999' 
TABS,ioos:station:wmo:42044:1,2011-11-04T16:00:00Z,26.1914,-97.0507,2.0,171.0092809,4.99132247,-99999.0,'11133222,11111222,99999999' 